Year,Month,Day,Hour,Minute,Value (Times are PST for temperature in C)
2008,09,17,00,00,16.60
2008,09,17,00,01,16.60
2008,09,17,00,02,16.60
2008,09,17,00,03,16.60
2008,09,17,00,04,16.60
2008,09,17,00,05,16.60
2008,09,17,00,06,16.60
2008,09,17,00,07,16.70
2008,09,17,00,08,16.70
2008,09,17,00,09,16.70
2008,09,17,00,10,16.70
2008,09,17,00,11,16.70
2008,09,17,00,12,16.60
2008,09,17,00,13,16.50
2008,09,17,00,14,16.50
2008,09,17,00,15,16.40
2008,09,17,00,16,16.40
2008,09,17,00,17,16.40
2008,09,17,00,18,16.40
2008,09,17,00,19,16.40
2008,09,17,00,20,16.40
2008,09,17,00,21,16.40
2008,09,17,00,22,16.50
2008,09,17,00,23,16.40
2008,09,17,00,24,16.40
2008,09,17,00,25,16.40
2008,09,17,00,26,16.40
2008,09,17,00,27,16.40
2008,09,17,00,28,16.40
2008,09,17,00,29,16.40
2008,09,17,00,30,16.30
2008,09,17,00,31,16.30
2008,09,17,00,32,16.30
2008,09,17,00,33,16.30
2008,09,17,00,34,16.30
2008,09,17,00,35,16.20
2008,09,17,00,36,16.20
2008,09,17,00,37,16.20
2008,09,17,00,38,16.20
2008,09,17,00,39,16.20
2008,09,17,00,40,16.20
2008,09,17,00,41,16.20
2008,09,17,00,42,16.10
2008,09,17,00,43,16.10
2008,09,17,00,44,16.00
2008,09,17,00,45,15.90
2008,09,17,00,46,15.80
2008,09,17,00,47,15.80
2008,09,17,00,48,15.80
2008,09,17,00,49,15.90
2008,09,17,00,50,15.90
2008,09,17,00,51,15.80
2008,09,17,00,52,15.90
2008,09,17,00,53,15.90
2008,09,17,00,54,15.90
2008,09,17,00,55,16.00
2008,09,17,00,56,16.10
2008,09,17,00,57,16.10
2008,09,17,00,58,16.20
2008,09,17,00,59,16.20
2008,09,17,01,00,16.30
2008,09,17,01,01,16.30
2008,09,17,01,02,16.30
2008,09,17,01,03,16.20
2008,09,17,01,04,16.20
2008,09,17,01,05,16.10
2008,09,17,01,06,16.10
2008,09,17,01,07,16.00
2008,09,17,01,08,15.90
2008,09,17,01,09,15.80
2008,09,17,01,10,15.80
2008,09,17,01,11,15.70
2008,09,17,01,12,15.70
2008,09,17,01,13,15.60
2008,09,17,01,14,15.60
2008,09,17,01,15,15.70
2008,09,17,01,16,15.70
2008,09,17,01,17,15.70
2008,09,17,01,18,15.80
2008,09,17,01,19,15.80
2008,09,17,01,20,15.90
2008,09,17,01,21,15.90
2008,09,17,01,22,16.00
2008,09,17,01,23,16.10
2008,09,17,01,24,16.20
2008,09,17,01,25,16.20
2008,09,17,01,26,16.30
2008,09,17,01,27,16.40
2008,09,17,01,28,16.40
2008,09,17,01,29,16.50
2008,09,17,01,30,16.50
2008,09,17,01,31,16.60
2008,09,17,01,32,16.60
2008,09,17,01,33,16.60
2008,09,17,01,34,16.60
2008,09,17,01,35,16.60
2008,09,17,01,36,16.60
2008,09,17,01,37,16.60
2008,09,17,01,38,16.50
2008,09,17,01,39,16.50
2008,09,17,01,40,16.50
2008,09,17,01,41,16.50
2008,09,17,01,42,16.40
2008,09,17,01,43,16.40
2008,09,17,01,44,16.30
2008,09,17,01,45,16.30
2008,09,17,01,46,16.20
2008,09,17,01,47,16.10
2008,09,17,01,48,15.90
2008,09,17,01,49,15.70
2008,09,17,01,50,15.50
2008,09,17,01,51,15.50
2008,09,17,01,52,15.50
2008,09,17,01,53,15.60
2008,09,17,01,54,15.60
2008,09,17,01,55,15.60
2008,09,17,01,56,15.60
2008,09,17,01,57,15.60
2008,09,17,01,58,15.60
2008,09,17,01,59,15.70
2008,09,17,02,00,15.70
2008,09,17,02,01,15.70
2008,09,17,02,02,15.60
2008,09,17,02,03,15.40
2008,09,17,02,04,15.20
2008,09,17,02,05,15.00
2008,09,17,02,06,15.00
2008,09,17,02,07,14.80
2008,09,17,02,08,14.60
2008,09,17,02,09,14.40
2008,09,17,02,10,14.30
2008,09,17,02,11,14.20
2008,09,17,02,12,14.10
2008,09,17,02,13,14.20
2008,09,17,02,14,14.20
2008,09,17,02,15,14.20
2008,09,17,02,16,14.20
2008,09,17,02,17,14.10
2008,09,17,02,18,14.10
2008,09,17,02,19,14.00
2008,09,17,02,20,13.90
2008,09,17,02,21,13.80
2008,09,17,02,22,13.80
2008,09,17,02,23,13.80
2008,09,17,02,24,13.70
2008,09,17,02,25,13.70
2008,09,17,02,26,13.60
2008,09,17,02,27,13.60
2008,09,17,02,28,13.50
2008,09,17,02,29,13.40
2008,09,17,02,30,13.30
2008,09,17,02,31,13.30
2008,09,17,02,32,13.30
2008,09,17,02,33,13.20
2008,09,17,02,34,13.10
2008,09,17,02,35,13.10
2008,09,17,02,36,13.00
2008,09,17,02,37,12.90
2008,09,17,02,38,12.90
2008,09,17,02,39,12.80
2008,09,17,02,40,12.80
2008,09,17,02,41,12.70
2008,09,17,02,42,12.70
2008,09,17,02,43,12.70
2008,09,17,02,44,12.70
2008,09,17,02,45,12.80
2008,09,17,02,46,12.80
2008,09,17,02,47,12.90
2008,09,17,02,48,12.90
2008,09,17,02,49,12.90
2008,09,17,02,50,12.90
2008,09,17,02,51,12.80
2008,09,17,02,52,12.80
2008,09,17,02,53,12.70
2008,09,17,02,54,12.60
2008,09,17,02,55,12.50
2008,09,17,02,56,12.40
2008,09,17,02,57,12.30
2008,09,17,02,58,12.20
2008,09,17,02,59,12.20
2008,09,17,03,00,12.20
2008,09,17,03,01,12.10
2008,09,17,03,02,12.10
2008,09,17,03,03,12.10
2008,09,17,03,04,12.10
2008,09,17,03,05,12.10
2008,09,17,03,06,12.10
2008,09,17,03,07,12.20
2008,09,17,03,08,12.30
2008,09,17,03,09,12.30
2008,09,17,03,10,12.40
2008,09,17,03,11,12.40
2008,09,17,03,12,12.40
2008,09,17,03,13,12.50
2008,09,17,03,14,12.50
2008,09,17,03,15,12.60
2008,09,17,03,16,12.70
2008,09,17,03,17,12.70
2008,09,17,03,18,12.70
2008,09,17,03,19,12.60
2008,09,17,03,20,12.60
2008,09,17,03,21,12.50
2008,09,17,03,22,12.40
2008,09,17,03,23,12.30
2008,09,17,03,24,12.20
2008,09,17,03,25,12.10
2008,09,17,03,26,12.10
2008,09,17,03,27,12.00
2008,09,17,03,28,12.00
2008,09,17,03,29,11.90
2008,09,17,03,30,11.90
2008,09,17,03,31,11.90
2008,09,17,03,32,11.80
2008,09,17,03,33,11.80
2008,09,17,03,34,11.90
2008,09,17,03,35,11.90
2008,09,17,03,36,11.90
2008,09,17,03,37,12.00
2008,09,17,03,38,12.00
2008,09,17,03,39,12.00
2008,09,17,03,40,12.00
2008,09,17,03,41,12.00
2008,09,17,03,42,12.10
2008,09,17,03,43,12.10
2008,09,17,03,44,12.20
2008,09,17,03,45,12.30
2008,09,17,03,46,12.50
2008,09,17,03,47,12.60
2008,09,17,03,48,12.80
2008,09,17,03,49,12.90
2008,09,17,03,50,13.10
2008,09,17,03,51,13.20
2008,09,17,03,52,13.30
2008,09,17,03,53,13.40
2008,09,17,03,54,13.50
2008,09,17,03,55,13.60
2008,09,17,03,56,13.70
2008,09,17,03,57,13.70
2008,09,17,03,58,13.80
2008,09,17,03,59,14.00
2008,09,17,04,00,14.10
2008,09,17,04,01,14.30
2008,09,17,04,02,14.40
2008,09,17,04,03,14.40
2008,09,17,04,04,14.50
2008,09,17,04,05,14.50
2008,09,17,04,06,14.50
2008,09,17,04,07,14.50
2008,09,17,04,08,14.60
2008,09,17,04,09,14.60
2008,09,17,04,10,14.70
2008,09,17,04,11,14.70
2008,09,17,04,12,14.80
2008,09,17,04,13,15.00
2008,09,17,04,14,15.00
2008,09,17,04,15,15.00
2008,09,17,04,16,15.00
2008,09,17,04,17,15.00
2008,09,17,04,18,15.00
2008,09,17,04,19,15.00
2008,09,17,04,20,15.00
2008,09,17,04,21,15.00
2008,09,17,04,22,15.00
2008,09,17,04,23,15.00
2008,09,17,04,24,15.00
2008,09,17,04,25,15.00
2008,09,17,04,26,15.00
2008,09,17,04,27,15.00
2008,09,17,04,28,15.00
2008,09,17,04,29,15.00
2008,09,17,04,30,15.00
2008,09,17,04,31,15.00
2008,09,17,04,32,15.00
2008,09,17,04,33,15.00
2008,09,17,04,34,15.00
2008,09,17,04,35,15.00
2008,09,17,04,36,15.00
2008,09,17,04,37,15.00
2008,09,17,04,38,15.00
2008,09,17,04,39,15.00
2008,09,17,04,40,15.00
2008,09,17,04,41,15.00
2008,09,17,04,42,15.00
2008,09,17,04,43,15.00
2008,09,17,04,44,15.00
2008,09,17,04,45,15.00
2008,09,17,04,46,15.00
2008,09,17,04,47,15.00
2008,09,17,04,48,15.00
2008,09,17,04,49,15.00
2008,09,17,04,50,15.00
2008,09,17,04,51,14.90
2008,09,17,04,52,14.80
2008,09,17,04,53,14.80
2008,09,17,04,54,14.80
2008,09,17,04,55,14.80
2008,09,17,04,56,14.70
2008,09,17,04,57,14.70
2008,09,17,04,58,14.70
2008,09,17,04,59,14.60
2008,09,17,05,00,14.60
2008,09,17,05,01,14.60
2008,09,17,05,02,14.60
2008,09,17,05,03,14.50
2008,09,17,05,04,14.50
2008,09,17,05,05,14.50
2008,09,17,05,06,14.40
2008,09,17,05,07,14.40
2008,09,17,05,08,14.40
2008,09,17,05,09,14.40
2008,09,17,05,10,14.40
2008,09,17,05,11,14.40
2008,09,17,05,12,14.40
2008,09,17,05,13,14.40
2008,09,17,05,14,14.30
2008,09,17,05,15,14.30
2008,09,17,05,16,14.30
2008,09,17,05,17,14.40
2008,09,17,05,18,14.40
2008,09,17,05,19,14.50
2008,09,17,05,20,14.50
2008,09,17,05,21,14.60
2008,09,17,05,22,14.60
2008,09,17,05,23,14.60
2008,09,17,05,24,14.60
2008,09,17,05,25,14.60
2008,09,17,05,26,14.70
2008,09,17,05,27,14.80
2008,09,17,05,28,15.00
2008,09,17,05,29,15.00
2008,09,17,05,30,15.00
2008,09,17,05,31,15.00
2008,09,17,05,32,15.10
2008,09,17,05,33,15.20
2008,09,17,05,34,15.30
2008,09,17,05,35,15.40
2008,09,17,05,36,15.40
2008,09,17,05,37,15.40
2008,09,17,05,38,15.50
2008,09,17,05,39,15.50
2008,09,17,05,40,15.60
2008,09,17,05,41,15.60
2008,09,17,05,42,15.70
2008,09,17,05,43,15.70
2008,09,17,05,44,15.70
2008,09,17,05,45,15.70
2008,09,17,05,46,15.70
2008,09,17,05,47,15.70
2008,09,17,05,48,15.70
2008,09,17,05,49,15.70
2008,09,17,05,50,15.70
2008,09,17,05,51,15.70
2008,09,17,05,52,15.70
2008,09,17,05,53,15.60
2008,09,17,05,54,15.60
2008,09,17,05,55,15.60
2008,09,17,05,56,15.60
2008,09,17,05,57,15.50
2008,09,17,05,58,15.50
2008,09,17,05,59,15.40
2008,09,17,06,00,15.30
2008,09,17,06,01,15.20
2008,09,17,06,02,15.10
2008,09,17,06,03,15.00
2008,09,17,06,04,15.00
2008,09,17,06,05,15.00
2008,09,17,06,06,15.00
2008,09,17,06,07,14.90
2008,09,17,06,08,14.80
2008,09,17,06,09,14.70
2008,09,17,06,10,14.70
2008,09,17,06,11,14.70
2008,09,17,06,12,14.70
2008,09,17,06,13,14.70
2008,09,17,06,14,14.80
2008,09,17,06,15,14.80
2008,09,17,06,16,14.80
2008,09,17,06,17,14.80
2008,09,17,06,18,14.80
2008,09,17,06,19,14.80
2008,09,17,06,20,14.80
2008,09,17,06,21,14.90
2008,09,17,06,22,15.00
2008,09,17,06,23,15.00
2008,09,17,06,24,15.00
2008,09,17,06,25,15.00
2008,09,17,06,26,15.00
2008,09,17,06,27,15.00
2008,09,17,06,28,15.00
2008,09,17,06,29,15.00
2008,09,17,06,30,14.90
2008,09,17,06,31,14.90
2008,09,17,06,32,14.90
2008,09,17,06,33,14.90
2008,09,17,06,34,14.90
2008,09,17,06,35,14.80
2008,09,17,06,36,14.70
2008,09,17,06,37,14.70
2008,09,17,06,38,14.60
2008,09,17,06,39,14.60
2008,09,17,06,40,14.50
2008,09,17,06,41,14.50
2008,09,17,06,42,14.40
2008,09,17,06,43,14.20
2008,09,17,06,44,14.10
2008,09,17,06,45,13.90
2008,09,17,06,46,13.90
2008,09,17,06,47,13.90
2008,09,17,06,48,14.00
2008,09,17,06,49,14.10
2008,09,17,06,50,14.20
2008,09,17,06,51,14.30
2008,09,17,06,52,14.30
2008,09,17,06,53,14.40
2008,09,17,06,54,14.50
2008,09,17,06,55,14.50
2008,09,17,06,56,14.50
2008,09,17,06,57,14.50
2008,09,17,06,58,14.40
2008,09,17,06,59,14.40
2008,09,17,07,00,14.30
2008,09,17,07,01,14.30
2008,09,17,07,02,14.20
2008,09,17,07,03,14.20
2008,09,17,07,04,14.20
2008,09,17,07,05,14.20
2008,09,17,07,06,14.20
2008,09,17,07,07,14.20
2008,09,17,07,08,14.20
2008,09,17,07,09,14.20
2008,09,17,07,10,14.20
2008,09,17,07,11,14.20
2008,09,17,07,12,14.20
2008,09,17,07,13,14.20
2008,09,17,07,14,14.20
2008,09,17,07,15,14.20
2008,09,17,07,16,14.10
2008,09,17,07,17,14.10
2008,09,17,07,18,14.00
2008,09,17,07,19,13.90
2008,09,17,07,20,13.90
2008,09,17,07,21,13.90
2008,09,17,07,22,14.00
2008,09,17,07,23,14.00
2008,09,17,07,24,14.00
2008,09,17,07,25,14.00
2008,09,17,07,26,14.10
2008,09,17,07,27,14.10
2008,09,17,07,28,14.10
2008,09,17,07,29,14.00
2008,09,17,07,30,13.90
2008,09,17,07,31,13.70
2008,09,17,07,32,13.60
2008,09,17,07,33,13.50
2008,09,17,07,34,13.40
2008,09,17,07,35,13.50
2008,09,17,07,36,13.50
2008,09,17,07,37,13.60
2008,09,17,07,38,13.70
2008,09,17,07,39,13.80
2008,09,17,07,40,13.80
2008,09,17,07,41,13.80
2008,09,17,07,42,13.90
2008,09,17,07,43,13.90
2008,09,17,07,44,13.90
2008,09,17,07,45,13.80
2008,09,17,07,46,13.70
2008,09,17,07,47,13.70
2008,09,17,07,48,13.60
2008,09,17,07,49,13.50
2008,09,17,07,50,13.40
2008,09,17,07,51,13.40
2008,09,17,07,52,13.30
2008,09,17,07,53,13.30
2008,09,17,07,54,13.30
2008,09,17,07,55,13.40
2008,09,17,07,56,13.50
2008,09,17,07,57,13.60
2008,09,17,07,58,13.70
2008,09,17,07,59,13.90
2008,09,17,08,00,14.00
2008,09,17,08,01,14.10
2008,09,17,08,02,14.10
2008,09,17,08,03,14.20
2008,09,17,08,04,14.20
2008,09,17,08,05,14.20
2008,09,17,08,06,14.20
2008,09,17,08,07,14.30
2008,09,17,08,08,14.30
2008,09,17,08,09,14.30
2008,09,17,08,10,14.30
2008,09,17,08,11,14.30
2008,09,17,08,12,14.40
2008,09,17,08,13,14.50
2008,09,17,08,14,14.60
2008,09,17,08,15,14.70
2008,09,17,08,16,14.80
2008,09,17,08,17,14.90
2008,09,17,08,18,15.00
2008,09,17,08,19,15.00
2008,09,17,08,20,14.90
2008,09,17,08,21,14.80
2008,09,17,08,22,14.70
2008,09,17,08,23,14.60
2008,09,17,08,24,14.70
2008,09,17,08,25,14.70
2008,09,17,08,26,14.70
2008,09,17,08,27,14.70
2008,09,17,08,28,14.80
2008,09,17,08,29,14.80
2008,09,17,08,30,14.90
2008,09,17,08,31,15.00
2008,09,17,08,32,15.00
2008,09,17,08,33,15.00
2008,09,17,08,34,15.00
2008,09,17,08,35,15.00
2008,09,17,08,36,15.00
2008,09,17,08,37,15.00
2008,09,17,08,38,15.00
2008,09,17,08,39,15.00
2008,09,17,08,40,15.00
2008,09,17,08,41,15.00
2008,09,17,08,42,15.00
2008,09,17,08,43,15.00
2008,09,17,08,44,15.20
2008,09,17,08,45,15.30
2008,09,17,08,46,15.40
2008,09,17,08,47,15.50
2008,09,17,08,48,15.60
2008,09,17,08,49,15.70
2008,09,17,08,50,15.80
2008,09,17,08,51,15.90
2008,09,17,08,52,16.00
2008,09,17,08,53,16.10
2008,09,17,08,54,16.20
2008,09,17,08,55,16.30
2008,09,17,08,56,16.40
2008,09,17,08,57,16.50
2008,09,17,08,58,16.50
2008,09,17,08,59,16.50
2008,09,17,09,00,16.50
2008,09,17,09,01,16.40
2008,09,17,09,02,16.40
2008,09,17,09,03,16.40
2008,09,17,09,04,16.40
2008,09,17,09,05,16.40
2008,09,17,09,06,16.40
2008,09,17,09,07,16.40
2008,09,17,09,08,16.40
2008,09,17,09,09,16.40
2008,09,17,09,10,16.40
2008,09,17,09,11,16.40
2008,09,17,09,12,16.40
2008,09,17,09,13,16.30
2008,09,17,09,14,16.30
2008,09,17,09,15,16.30
2008,09,17,09,16,16.30
2008,09,17,09,17,16.30
2008,09,17,09,18,16.30
2008,09,17,09,19,16.20
2008,09,17,09,20,16.20
2008,09,17,09,21,16.20
2008,09,17,09,22,16.20
2008,09,17,09,23,16.20
2008,09,17,09,24,16.20
2008,09,17,09,25,16.30
2008,09,17,09,26,16.30
2008,09,17,09,27,16.40
2008,09,17,09,28,16.50
2008,09,17,09,29,16.60
2008,09,17,09,30,16.60
2008,09,17,09,31,16.60
2008,09,17,09,32,16.60
2008,09,17,09,33,16.60
2008,09,17,09,34,16.60
2008,09,17,09,35,16.70
2008,09,17,09,36,16.70
2008,09,17,09,37,16.80
2008,09,17,09,38,16.90
2008,09,17,09,39,17.00
2008,09,17,09,40,17.00
2008,09,17,09,41,17.10
2008,09,17,09,42,17.10
2008,09,17,09,43,17.20
2008,09,17,09,44,17.20
2008,09,17,09,45,17.30
2008,09,17,09,46,17.30
2008,09,17,09,47,17.40
2008,09,17,09,48,17.40
2008,09,17,09,49,17.30
2008,09,17,09,50,17.30
2008,09,17,09,51,17.20
2008,09,17,09,52,17.20
2008,09,17,09,53,17.10
2008,09,17,09,54,17.10
2008,09,17,09,55,17.00
2008,09,17,09,56,17.00
2008,09,17,09,57,16.90
2008,09,17,09,58,16.90
2008,09,17,09,59,16.90
2008,09,17,10,00,16.90
2008,09,17,10,01,16.90
2008,09,17,10,02,17.00
2008,09,17,10,03,17.00
2008,09,17,10,04,17.10
2008,09,17,10,05,17.10
2008,09,17,10,06,17.20
2008,09,17,10,07,17.20
2008,09,17,10,08,17.30
2008,09,17,10,09,17.40
2008,09,17,10,10,17.50
2008,09,17,10,11,17.70
2008,09,17,10,12,17.90
2008,09,17,10,13,18.00
2008,09,17,10,14,18.20
2008,09,17,10,15,18.40
2008,09,17,10,16,18.50
2008,09,17,10,17,18.60
2008,09,17,10,18,18.70
2008,09,17,10,19,18.80
2008,09,17,10,20,18.80
2008,09,17,10,21,18.80
2008,09,17,10,22,18.80
2008,09,17,10,23,18.70
2008,09,17,10,24,18.70
2008,09,17,10,25,18.60
2008,09,17,10,26,18.60
2008,09,17,10,27,18.50
2008,09,17,10,28,18.50
2008,09,17,10,29,18.40
2008,09,17,10,30,18.30
2008,09,17,10,31,18.30
2008,09,17,10,32,18.30
2008,09,17,10,33,18.20
2008,09,17,10,34,18.20
2008,09,17,10,35,18.10
2008,09,17,10,36,18.10
2008,09,17,10,37,18.10
2008,09,17,10,38,18.00
2008,09,17,10,39,18.00
2008,09,17,10,40,18.00
2008,09,17,10,41,18.00
2008,09,17,10,42,18.00
2008,09,17,10,43,18.00
2008,09,17,10,44,18.00
2008,09,17,10,45,17.90
2008,09,17,10,46,17.90
2008,09,17,10,47,17.80
2008,09,17,10,48,17.80
2008,09,17,10,49,17.80
2008,09,17,10,50,17.70
2008,09,17,10,51,17.70
2008,09,17,10,52,17.70
2008,09,17,10,53,17.60
2008,09,17,10,54,17.60
2008,09,17,10,55,17.50
2008,09,17,10,56,17.40
2008,09,17,10,57,17.20
2008,09,17,10,58,17.10
2008,09,17,10,59,17.00
2008,09,17,11,00,17.00
2008,09,17,11,01,17.00
2008,09,17,11,02,16.90
2008,09,17,11,03,16.90
2008,09,17,11,04,16.90
2008,09,17,11,05,16.80
2008,09,17,11,06,16.80
2008,09,17,11,07,16.80
2008,09,17,11,08,16.80
2008,09,17,11,09,16.80
2008,09,17,11,10,16.80
2008,09,17,11,11,16.90
2008,09,17,11,12,16.90
2008,09,17,11,13,17.00
2008,09,17,11,14,17.10
2008,09,17,11,15,17.20
2008,09,17,11,16,17.30
2008,09,17,11,17,17.30
2008,09,17,11,18,17.40
2008,09,17,11,19,17.50
2008,09,17,11,20,17.50
2008,09,17,11,21,17.60
2008,09,17,11,22,17.60
2008,09,17,11,23,17.70
2008,09,17,11,24,17.80
2008,09,17,11,25,17.80
2008,09,17,11,26,17.80
2008,09,17,11,27,17.80
2008,09,17,11,28,17.80
2008,09,17,11,29,17.70
2008,09,17,11,30,17.70
2008,09,17,11,31,17.70
2008,09,17,11,32,17.70
2008,09,17,11,33,17.70
2008,09,17,11,34,17.80
2008,09,17,11,35,17.80
2008,09,17,11,36,17.80
2008,09,17,11,37,17.80
2008,09,17,11,38,17.70
2008,09,17,11,39,17.70
2008,09,17,11,40,17.80
2008,09,17,11,41,17.80
2008,09,17,11,42,17.80
2008,09,17,11,43,17.70
2008,09,17,11,44,17.70
2008,09,17,11,45,17.60
2008,09,17,11,46,17.60
2008,09,17,11,47,17.50
2008,09,17,11,48,17.50
2008,09,17,11,49,17.60
2008,09,17,11,50,17.60
2008,09,17,11,51,17.60
2008,09,17,11,52,17.70
2008,09,17,11,53,17.70
2008,09,17,11,54,17.80
2008,09,17,11,55,17.80
2008,09,17,11,56,17.80
2008,09,17,11,57,17.80
2008,09,17,11,58,17.80
2008,09,17,11,59,17.80
2008,09,17,12,00,17.80
2008,09,17,12,01,17.80
2008,09,17,12,02,17.80
2008,09,17,12,03,17.80
2008,09,17,12,04,17.70
2008,09,17,12,05,17.70
2008,09,17,12,06,17.70
2008,09,17,12,07,17.70
2008,09,17,12,08,17.80
2008,09,17,12,09,17.80
2008,09,17,12,10,17.80
2008,09,17,12,11,17.80
2008,09,17,12,12,17.90
2008,09,17,12,13,17.90
2008,09,17,12,14,18.00
2008,09,17,12,15,18.00
2008,09,17,12,16,18.10
2008,09,17,12,17,18.10
2008,09,17,12,18,18.20
2008,09,17,12,19,18.30
2008,09,17,12,20,18.30
2008,09,17,12,21,18.40
2008,09,17,12,22,18.30
2008,09,17,12,23,18.30
2008,09,17,12,24,18.20
2008,09,17,12,25,18.10
2008,09,17,12,26,18.00
2008,09,17,12,27,17.80
2008,09,17,12,28,17.80
2008,09,17,12,29,17.70
2008,09,17,12,30,17.60
2008,09,17,12,31,17.50
2008,09,17,12,32,17.50
2008,09,17,12,33,17.40
2008,09,17,12,34,17.40
2008,09,17,12,35,17.30
2008,09,17,12,36,17.20
2008,09,17,12,37,17.20
2008,09,17,12,38,17.20
2008,09,17,12,39,17.20
2008,09,17,12,40,17.20
2008,09,17,12,41,17.20
2008,09,17,12,42,17.20
2008,09,17,12,43,17.20
2008,09,17,12,44,17.20
2008,09,17,12,45,17.20
2008,09,17,12,46,17.20
2008,09,17,12,47,17.10
2008,09,17,12,48,17.10
2008,09,17,12,49,17.00
2008,09,17,12,50,16.90
2008,09,17,12,51,16.90
2008,09,17,12,52,16.90
2008,09,17,12,53,16.90
2008,09,17,12,54,17.00
2008,09,17,12,55,17.10
2008,09,17,12,56,17.10
2008,09,17,12,57,17.20
2008,09,17,12,58,17.20
2008,09,17,12,59,17.20
2008,09,17,13,00,17.20
2008,09,17,13,01,17.20
2008,09,17,13,02,17.30
2008,09,17,13,03,17.30
2008,09,17,13,04,17.40
2008,09,17,13,05,17.40
2008,09,17,13,06,17.50
2008,09,17,13,07,17.70
2008,09,17,13,08,17.80
2008,09,17,13,09,17.90
2008,09,17,13,10,18.00
2008,09,17,13,11,18.10
2008,09,17,13,12,18.20
2008,09,17,13,13,18.30
2008,09,17,13,14,18.40
2008,09,17,13,15,18.40
2008,09,17,13,16,18.40
2008,09,17,13,17,18.40
2008,09,17,13,18,18.40
2008,09,17,13,19,18.40
2008,09,17,13,20,18.40
2008,09,17,13,21,18.30
2008,09,17,13,22,18.30
2008,09,17,13,23,18.30
2008,09,17,13,24,18.30
2008,09,17,13,25,18.20
2008,09,17,13,26,18.10
2008,09,17,13,27,17.90
2008,09,17,13,28,17.80
2008,09,17,13,29,17.60
2008,09,17,13,30,17.50
2008,09,17,13,31,17.40
2008,09,17,13,32,17.30
2008,09,17,13,33,17.30
2008,09,17,13,34,17.30
2008,09,17,13,35,17.30
2008,09,17,13,36,17.30
2008,09,17,13,37,17.20
2008,09,17,13,38,17.20
2008,09,17,13,39,17.20
2008,09,17,13,40,17.20
2008,09,17,13,41,17.30
2008,09,17,13,42,17.30
2008,09,17,13,43,17.30
2008,09,17,13,44,17.40
2008,09,17,13,45,17.50
2008,09,17,13,46,17.60
2008,09,17,13,47,17.70
2008,09,17,13,48,17.70
2008,09,17,13,49,17.80
2008,09,17,13,50,17.90
2008,09,17,13,51,18.00
2008,09,17,13,52,18.10
2008,09,17,13,53,18.30
2008,09,17,13,54,18.40
2008,09,17,13,55,18.50
2008,09,17,13,56,18.70
2008,09,17,13,57,18.80
2008,09,17,13,58,18.90
2008,09,17,13,59,19.00
2008,09,17,14,00,19.20
2008,09,17,14,01,19.30
2008,09,17,14,02,19.40
2008,09,17,14,03,19.40
2008,09,17,14,04,19.20
2008,09,17,14,05,19.20
2008,09,17,14,06,19.10
2008,09,17,14,07,19.00
2008,09,17,14,08,18.90
2008,09,17,14,09,18.80
2008,09,17,14,10,18.70
2008,09,17,14,11,18.70
2008,09,17,14,12,18.60
2008,09,17,14,13,18.50
2008,09,17,14,14,18.40
2008,09,17,14,15,18.40
2008,09,17,14,16,18.40
2008,09,17,14,17,18.50
2008,09,17,14,18,18.50
2008,09,17,14,19,18.60
2008,09,17,14,20,18.70
2008,09,17,14,21,18.80
2008,09,17,14,22,18.80
2008,09,17,14,23,18.90
2008,09,17,14,24,19.00
2008,09,17,14,25,19.00
2008,09,17,14,26,19.10
2008,09,17,14,27,19.20
2008,09,17,14,28,19.30
2008,09,17,14,29,19.30
2008,09,17,14,30,19.30
2008,09,17,14,31,19.40
2008,09,17,14,32,19.40
2008,09,17,14,33,19.40
2008,09,17,14,34,19.40
2008,09,17,14,35,19.40
2008,09,17,14,36,19.40
2008,09,17,14,37,19.50
2008,09,17,14,38,19.50
2008,09,17,14,39,19.60
2008,09,17,14,40,19.60
2008,09,17,14,41,19.60
2008,09,17,14,42,19.50
2008,09,17,14,43,19.40
2008,09,17,14,44,19.40
2008,09,17,14,45,19.30
2008,09,17,14,46,19.30
2008,09,17,14,47,19.20
2008,09,17,14,48,19.10
2008,09,17,14,49,19.10
2008,09,17,14,50,19.00
2008,09,17,14,51,19.00
2008,09,17,14,52,19.00
2008,09,17,14,53,18.90
2008,09,17,14,54,18.90
2008,09,17,14,55,19.00
2008,09,17,14,56,19.00
2008,09,17,14,57,19.10
2008,09,17,14,58,19.10
2008,09,17,14,59,19.20
2008,09,17,15,00,19.20
2008,09,17,15,01,19.20
2008,09,17,15,02,19.20
2008,09,17,15,03,19.30
2008,09,17,15,04,19.30
2008,09,17,15,05,19.40
2008,09,17,15,06,19.50
2008,09,17,15,07,19.60
2008,09,17,15,08,19.60
2008,09,17,15,09,19.70
2008,09,17,15,10,19.80
2008,09,17,15,11,20.00
2008,09,17,15,12,20.10
2008,09,17,15,13,20.10
2008,09,17,15,14,20.10
2008,09,17,15,15,20.10
2008,09,17,15,16,20.10
2008,09,17,15,17,20.10
2008,09,17,15,18,20.10
2008,09,17,15,19,20.10
2008,09,17,15,20,20.00
2008,09,17,15,21,20.00
2008,09,17,15,22,20.10
2008,09,17,15,23,20.10
2008,09,17,15,24,20.00
2008,09,17,15,25,20.00
2008,09,17,15,26,20.00
2008,09,17,15,27,19.90
2008,09,17,15,28,19.90
2008,09,17,15,29,19.90
2008,09,17,15,30,19.90
2008,09,17,15,31,19.90
2008,09,17,15,32,19.90
2008,09,17,15,33,19.90
2008,09,17,15,34,19.90
2008,09,17,15,35,19.90
2008,09,17,15,36,20.00
2008,09,17,15,37,20.10
2008,09,17,15,38,20.10
2008,09,17,15,39,20.00
2008,09,17,15,40,20.00
2008,09,17,15,41,19.90
2008,09,17,15,42,19.90
2008,09,17,15,43,19.90
2008,09,17,15,44,19.90
2008,09,17,15,45,19.90
2008,09,17,15,46,19.90
2008,09,17,15,47,19.90
2008,09,17,15,48,19.90
2008,09,17,15,49,19.90
2008,09,17,15,50,19.90
2008,09,17,15,51,19.90
2008,09,17,15,52,19.90
2008,09,17,15,53,19.90
2008,09,17,15,54,19.90
2008,09,17,15,55,19.90
2008,09,17,15,56,19.90
2008,09,17,15,57,19.80
2008,09,17,15,58,19.70
2008,09,17,15,59,19.70
2008,09,17,16,00,19.60
2008,09,17,16,01,19.60
2008,09,17,16,02,19.70
2008,09,17,16,03,19.70
2008,09,17,16,04,19.80
2008,09,17,16,05,19.80
2008,09,17,16,06,19.90
2008,09,17,16,07,19.90
2008,09,17,16,08,19.90
2008,09,17,16,09,19.80
2008,09,17,16,10,19.60
2008,09,17,16,11,19.50
2008,09,17,16,12,19.30
2008,09,17,16,13,19.30
2008,09,17,16,14,19.20
2008,09,17,16,15,19.20
2008,09,17,16,16,19.20
2008,09,17,16,17,19.20
2008,09,17,16,18,19.20
2008,09,17,16,19,19.20
2008,09,17,16,20,19.30
2008,09,17,16,21,19.30
2008,09,17,16,22,19.30
2008,09,17,16,23,19.40
2008,09,17,16,24,19.40
2008,09,17,16,25,19.40
2008,09,17,16,26,19.40
2008,09,17,16,27,19.40
2008,09,17,16,28,19.40
2008,09,17,16,29,19.40
2008,09,17,16,30,19.40
2008,09,17,16,31,19.30
2008,09,17,16,32,19.40
2008,09,17,16,33,19.40
2008,09,17,16,34,19.40
2008,09,17,16,35,19.40
2008,09,17,16,36,19.40
2008,09,17,16,37,19.50
2008,09,17,16,38,19.50
2008,09,17,16,39,19.50
2008,09,17,16,40,19.60
2008,09,17,16,41,19.60
2008,09,17,16,42,19.60
2008,09,17,16,43,19.70
2008,09,17,16,44,19.70
2008,09,17,16,45,19.80
2008,09,17,16,46,19.80
2008,09,17,16,47,19.80
2008,09,17,16,48,19.80
2008,09,17,16,49,19.80
2008,09,17,16,50,19.90
2008,09,17,16,51,19.90
2008,09,17,16,52,19.90
2008,09,17,16,53,19.90
2008,09,17,16,54,19.90
2008,09,17,16,55,19.90
2008,09,17,16,56,19.90
2008,09,17,16,57,19.90
2008,09,17,16,58,19.90
2008,09,17,16,59,19.90
2008,09,17,17,00,20.00
2008,09,17,17,01,20.10
2008,09,17,17,02,20.10
2008,09,17,17,03,20.20
2008,09,17,17,04,20.20
2008,09,17,17,05,20.30
2008,09,17,17,06,20.20
2008,09,17,17,07,20.20
2008,09,17,17,08,20.20
2008,09,17,17,09,20.20
2008,09,17,17,10,20.10
2008,09,17,17,11,20.10
2008,09,17,17,12,20.00
2008,09,17,17,13,20.00
2008,09,17,17,14,19.90
2008,09,17,17,15,19.80
2008,09,17,17,16,19.70
2008,09,17,17,17,19.70
2008,09,17,17,18,19.70
2008,09,17,17,19,19.70